This is the latest recevied weather packets stored in our database for station/object WA9SDJ-13. If no packets are shown the sender has not sent any weather packets the latest 10 day(s).
| Time | Temp. | Humidity | Pressure | Rain* | Wind** | Luminosity | Snow |
|---|---|---|---|---|---|---|---|
| 1778016903 | 10° C | 87% | 1008.1 hPa | 2.29 mm | - | 63 W/m² | - |
| 1778016843 | 10° C | 87% | 1007.9 hPa | 2.29 mm | - | 65 W/m² | - |
| 1778016782 | 10° C | 87% | 1007.8 hPa | 2.29 mm | - | 67 W/m² | - |
| 1778016722 | 10° C | 87% | 1007.8 hPa | 2.29 mm | - | 69 W/m² | - |
| 1778016663 | 10° C | 87% | 1008 hPa | 2.29 mm | - | 67 W/m² | - |
| 1778016603 | 10° C | 87% | 1008 hPa | 2.29 mm | - | 65 W/m² | - |
| 1778016543 | 10° C | 87% | 1008 hPa | 2.29 mm | - | 58 W/m² | - |
| 1778016483 | 10° C | 87% | 1008 hPa | 2.29 mm | - | 51 W/m² | - |
| 1778016422 | 10° C | 87% | 1008 hPa | 2.29 mm | - | 49 W/m² | - |
| 1778016362 | 10° C | 87% | 1008 hPa | 2.29 mm | - | 56 W/m² | - |
| 1778016302 | 10° C | 87% | 1008 hPa | 2.29 mm | - | 62 W/m² | - |
| 1778016242 | 10° C | 87% | 1008 hPa | 2.29 mm | - | 67 W/m² | - |
| 1778016182 | 10° C | 87% | 1008.1 hPa | 2.29 mm | - | 67 W/m² | - |
| 1778016122 | 10° C | 87% | 1008.1 hPa | 2.03 mm | - | 65 W/m² | - |
| 1778016063 | 10° C | 87% | 1008.2 hPa | 2.03 mm | - | 67 W/m² | - |
| 1778016002 | 10° C | 87% | 1008.2 hPa | 2.03 mm | - | 72 W/m² | - |
| 1778015942 | 10.56° C | 87% | 1008.3 hPa | 1.78 mm | - | 72 W/m² | - |
| 1778015882 | 10.56° C | 87% | 1008.4 hPa | 1.78 mm | - | 69 W/m² | - |
| 1778015822 | 10.56° C | 87% | 1008.4 hPa | 1.78 mm | - | 60 W/m² | - |
| 1778015762 | 10.56° C | 87% | 1008.3 hPa | 1.78 mm | - | 55 W/m² | - |
| 1778015702 | 10.56° C | 87% | 1008.4 hPa | 1.52 mm | - | 65 W/m² | - |
| 1778015642 | 10.56° C | 87% | 1008.4 hPa | 1.52 mm | - | 67 W/m² | - |
| 1778015582 | 10.56° C | 87% | 1008.4 hPa | 1.52 mm | - | 65 W/m² | - |
| 1778015522 | 10.56° C | 87% | 1008.4 hPa | 1.27 mm | - | 55 W/m² | - |
| 1778015463 | 10.56° C | 87% | 1008.5 hPa | 1.27 mm | - | 48 W/m² | - |
* Rain latest hour (hover to see other rain measurements)
** Current wind speed in m/s (hover to see current wind gust speed)